Location: Newark
(39.8867°N, 94.3600°W)
Time: 11:35:03
(UTC+00:00)

N. Korean satellite - Pass Details

Date: 31 January 2020
Orbit: 456 x 505 km, 97.2° (Epoch: 23 February)

Event Time Altitude Azimuth Distance (km) Brightness Sun altitude
Rises 11:02:08 0° 34° (NE) 2,567 10.7 -27.9°
Reaches altitude 10° 11:05:08 10° 62° (ENE) 1,691 10.1 -27.4°
Maximum altitude 11:06:58 13° 92° (E) 1,494 9.9 -27.0°
Drops below altitude 10° 11:08:48 10° 123° (ESE) 1,696 10.0 -26.7°
Sets 11:11:48 0° 151° (SSE) 2,580 10.7 -26.1°
